Lid_Strength_Index
-1 -1 -1 -1 -1 -1 -1 -1 -1 -1 -1 -1 -1 -1 -1 -1 -1 0 4 2 1 -2 0 4 4 4 4 5 6 6 7 8 8 9 8 7 7 7 6 6 5 4 5 4 1
-1 -0 -1 -0 -0 -0 -1 -1 -1 -1 -1 -1 -1 -1 -1 -1 2 3 0 -2 -2 -1 4 5 5 5 5 6 6 6 7 8 7 7 7 7 7 6 7 7 6 6 5 5 2
-0 -0 -0 -0 -0 -0 -1 -1 -1 -1 -1 -1 -1 -1 -1 -0 4 5 -1 -2 -1 0 3 4 4 5 6 6 7 8 8 9 8 7 7 7 8 6 7 8 6 6 5 5 3
-0 -0 -0 0 0 -0 -0 -0 -1 -1 -1 -1 -1 -1 -1 2 10 4 -1 -1 -1 2 4 5 5 6 7 8 7 9 8 8 7 7 7 8 7 7 7 6 6 5 5 5 3
-1 -0 0 0 0 -0 -0 -0 -1 -1 -1 -1 -1 -1 2 6 6 2 -0 0 3 4 5 5 6 6 8 7 7 8 8 8 7 7 7 7 7 7 7 6 6 6 7 5 4
-0 -0 -0 0 0 -0 -0 -0 -0 -0 -0 -1 -1 -1 4 9 2 2 3 4 4 4 5 5 5 5 7 7 8 7 8 7 7 7 7 8 8 8 6 6 7 7 6 5 5
0 -0 0 0 0 0 -0 -0 -0 -0 -0 -1 -1 1 6 7 2 2 4 4 4 5 5 5 5 5 6 7 7 8 8 8 7 7 7 7 8 8 6 7 7 7 6 6 6
1 2 0 0 0 0 0 -0 -0 -0 -0 -1 -1 3 7 3 1 4 4 4 4 4 4 4 4 5 6 6 7 8 8 10 9 8 8 8 10 7 7 7 7 6 6 6 6
1 2 2 0 0 -0 -0 -0 -0 -0 -1 -1 2 4 8 1 3 3 3 5 5 5 4 5 5 7 7 8 9 9 11 11 10 8 9 8 9 7 8 8 7 6 6 6 6
1 1 1 1 1 0 -0 -1 -1 -0 0 2 3 7 7 7 3 4 4 4 5 5 6 6 6 7 8 9 12 11 11 11 11 10 10 9 9 7 7 8 7 6 6 6 6
0 1 1 1 1 1 1 3 5 6 4 7 8 9 7 5 3 4 4 5 5 6 8 8 9 10 8 8 10 11 11 11 10 10 10 10 9 8 7 7 7 7 6 6 6
1 0 0 1 1 1 2 5 6 4 7 5 6 6 5 4 6 5 4 6 7 8 8 9 11 8 9 9 10 11 11 11 10 10 10 10 10 8 8 7 7 7 6 6 5
2 2 1 0 1 1 3 3 1 3 7 6 6 6 6 5 7 6 5 7 8 10 9 10 10 8 10 11 11 11 11 11 11 11 10 11 11 10 8 8 8 7 6 6 6
3 3 2 0 3 2 3 1 2 4 11 10 7 6 6 5 8 5 5 6 9 10 9 9 9 10 11 11 10 12 10 10 11 12 13 11 15 11 9 9 8 7 6 6 6
4 4 4 1 2 3 3 1 1 3 18 8 8 5 7 8 8 7 6 7 9 10 9 11 11 11 11 10 9 11 10 10 11 11 13 12 14 12 11 11 9 7 6 6 5
3 4 4 3 2 3 1 2 3 13 18 11 8 9 9 9 9 8 7 6 7 9 10 10 9 9 9 10 9 10 10 11 11 12 15 12 13 13 11 10 9 8 7 7 7
2 3 3 4 5 4 3 3 13 18 9 12 11 10 10 10 10 9 9 10 10 12 12 11 11 10 9 11 10 10 11 14 15 16 16 13 14 13 10 9 8 7 6 8 7
1 3 3 4 3 4 4 9 17 13 12 10 10 11 11 10 10 10 10 11 9 11 12 13 14 11 9 9 10 11 10 13 19 16 15 15 16 12 9 8 8 8 7 8 8
2 3 4 3 2 3 7 14 15 12 10 11 10 12 12 11 11 12 11 10 9 10 12 13 13 11 10 9 9 11 13 10 13 17 15 14 12 10 9 9 9 9 8 8 7
3 4 5 3 1 3 9 13 12 9 8 9 13 11 14 12 12 12 12 10 11 9 8 11 13 12 11 9 10 10 9 13 13 18 18 15 14 13 10 10 9 9 9 7 7
3 8 5 2 1 6 12 11 10 7 7 10 12 13 12 12 11 12 12 11 10 10 9 9 12 13 11 12 12 12 12 12 12 13 17 16 14 9 9 9 9 8 8 8 8
4 9 3 1 8 8 10 9 7 8 7 9 9 10 12 11 12 12 12 10 9 10 12 10 12 14 13 11 11 11 11 11 14 16 14 15 14 10 9 9 9 9 9 9 9
7 7 3 2 11 11 9 9 8 9 9 9 10 9 9 11 14 12 11 8 9 10 11 10 13 17 15 13 13 14 13 12 11 13 16 17 14 11 10 9 9 9 8 8 9
6 10 7 6 6 9 10 10 10 7 8 8 9 8 10 11 10 12 11 9 8 9 8 9 12 15 16 13 12 14 13 12 12 15 14 14 13 10 10 9 9 8 8 8 8
6 9 8 11 10 9 8 9 10 11 8 7 9 9 10 12 11 12 10 10 8 8 9 11 15 13 12 12 12 12 12 12 13 12 14 13 12 10 9 9 8 7 7 8 8
8 8 8 9 9 10 9 10 10 9 9 10 10 9 9 11 11 12 10 10 10 9 10 10 14 14 15 12 12 14 12 12 12 11 11 11 11 8 7 7 8 8 7 8 7
5 5 7 9 9 10 11 11 11 9 8 8 8 9 10 9 8 8 8 9 9 10 11 12 14 15 16 12 14 17 14 12 11 10 11 13 10 8 8 8 8 7 7 7 7